Regional Weather Roundup
Issued by NWS Raleigh/Durham, NC

Home | Current Version | Previous Version | Text Only | Print | Product List | Glossary On
Versions: 1 2 3 4 5 6 7 8 9 10 11 12 13 14 15 16 17 18 19 20 21 22 23 24 25 26 27 28 29 30 31 32 33 34 35 36 37 38 39 40 41 42 43 44 45 46 47 48 49 50
000
ASUS42 KRAH 240010
RWRRAH
NORTH CAROLINA WEATHER ROUNDUP
NATIONAL WEATHER SERVICE RALEIGH NC
800 PM EDT WED JUL 23 2014

NOTE: "FAIR" INDICATES FEW OR NO CLOUDS BELOW 12,000 FEET WITH NO
SIGNIFICANT WEATHER AND/OR OBSTRUCTIONS TO VISIBILITY.

NCZ001-053-055-056-065-067-240100-
WESTERN NORTH CAROLINA

CITY           SKY/WX    TMP DP  RH WIND       PRES   REMARKS
ASHEVILLE      MOCLDY    75  67  76 CALM      30.06F
JEFFERSON      MOCLDY    72  64  78 CALM      30.09S
MORGANTON      CLOUDY    75  71  88 CALM      30.02F
HICKORY        CLOUDY    76  70  82 CALM      29.97F
RUTHERFORDTON  MOCLDY    77  73  86 CALM      30.00F
MOUNT AIRY     CLOUDY    79  67  67 N3        29.96F
BOONE          MOCLDY    69  63  81 NW5       30.10S
$$

NCZ021-022-025-041-071-084-088-240100-
CENTRAL NORTH CAROLINA

CITY           SKY/WX    TMP DP  RH WIND       PRES   REMARKS
CHARLOTTE      PTCLDY    81  69  67 W6        29.97R
GREENSBORO     MOCLDY    84  71  65 SW7       29.94F
WINSTON-SALEM  MOCLDY    83  70  64 W8        29.96S
RALEIGH-DURHAM PTCLDY    83  70  64 SW14      29.93S
FORT BRAGG     PTCLDY    83  73  71 SW2       29.94S
FAYETTEVILLE   PTCLDY    85  75  72 SW6       29.93F
BURLINGTON     MOCLDY    85  69  58 SW6       29.93S
LAURINBURG     PTCLDY    83  75  77 SW8       29.94F
$$

NCZ011-015-027-028-043-044-047-080-103-240100-
NORTHEASTERN NORTH CAROLINA

CITY           SKY/WX    TMP DP  RH WIND       PRES   REMARKS
ROCKY MT-WILSO PTCLDY    83  72  69 S9        29.91F
GREENVILLE     PTCLDY    82  77  83 SW8       29.93F
WASHINGTON     MOCLDY    79  75  89 S3        29.92F
ELIZABETH CITY CLEAR     82  74  76 S14G21    29.89S
MANTEO         NOT AVBL
CAPE HATTERAS  PTCLDY    80  76  87 SW10      29.93F
$$

NCZ078-087-090-091-093-098-101-240100-
SOUTHEASTERN NORTH CAROLINA

CITY           SKY/WX    TMP DP  RH WIND       PRES   REMARKS
LUMBERTON      PTCLDY    82  72  71 SW7       29.94F
GOLDSBORO      PTCLDY    83  76  79 S5        29.91F
KINSTON        PTCLDY    84  75  74 SW5       29.93F
KENANSVILLE    MOCLDY    82  73  74 CALM      29.95S
NEW BERN       MOCLDY    83  75  77 S8        29.95S
CHERRY POINT   MOCLDY    80  75  84 SW12G20   29.96S
BEAUFORT       PTCLDY    81  76  84 SW17      29.96S
JACKSONVILLE   MOCLDY    81  75  82 SW7       29.96R THUNDER
WILMINGTON     CLOUDY    82  74  76 SW9       29.96F
$$



USA.gov is the U.S. government's official web portal to all federal, state and local government web resources and services.